This demonstration page uses our WeatherBlox Daily Observations layout. Learn more.

41.55636, -103.73856

Hourly Observations for September 23, 2017

Temp ( °F °C ) Dew Point ( °F °C ) Humidity (%) Winds ( mph kmh ) Pressure ( in mb ) Visibility ( mi km ) Precip ( " mm )
12:53 am 00:53 Clear 50 10 38 3.3 63 63 undefined N/A 29.89 1012 10 16.0934 0 0
1:53 am 01:53 Clear 48 8.9 38 3.3 68 68 ENE 7 11 29.9 1013 10 16.0934 0 0
2:53 am 02:53 Clear 48 8.9 38 3.3 68 68 ENE 6 9 29.91 1013 10 16.0934 0 0
3:53 am 03:53 Mostly Cloudy 46 7.8 37 2.8 71 71 N 9 15 29.89 1012 10 16.0934 0 0
4:53 am 04:53 Partly Cloudy 46 7.8 38 3.3 73 73 WNW 8 13 29.92 1013 10 16.0934 0 0
5:53 am 05:53 Mostly Cloudy 45 7.2 38 3.3 77 77 WNW 8 13 29.96 1015 10 16.0934 0 0.0254
6:15 am 06:15 Mostly Cloudy with Light Rain 45 7.2 38 3.3 77 77 undefined N/A 30 1016 10 16.0934 0 0.0254
6:53 am 06:53 Cloudy 45 7.2 38 3.3 77 77 NNW 7 11 29.98 1015 10 16.0934 0 0.0254
7:06 am 07:06 Cloudy 45 7.2 38 3.3 77 77 N 7 11 30 1016 10 16.0934 0 0
7:53 am 07:53 Cloudy 46 7.8 39 3.9 77 77 N 7 11 29.96 1014 9 14.48406 0 0
8:53 am 08:53 Cloudy with Mist and Fog 45 7.2 42 5.6 90 90 VRB 3 6 29.98 1015 3 4.82802 0 0
9:03 am 09:03 Cloudy with Mist and Fog 45 7.2 42 5.6 90 90 Calm 30.03 1017 2.5 4.02335 0 0
9:24 am 09:24 Cloudy with Mist and Fog 45 7 43 6 93 93 NNE 6 9 30.03 1017 1.75 2.816345 0 0
9:35 am 09:35 Cloudy with Mist and Fog 45 7.2 42 5.6 90 90 N 7 11 30.03 1017 2 3.21868 0 0
9:48 am 09:48 Cloudy with Mist and Fog 45 7 43 6 93 93 NNE 5 7 30.03 1017 2.5 4.02335 0 0
9:53 am 09:53 Cloudy with Mist and Fog 45 7.2 43 6.1 93 93 N 7 11 29.98 1015 2 3.21868 0 0
10:08 am 10:08 Cloudy with Mist and Fog 45 7.2 42 5.6 90 90 NNE 8 13 30.03 1017 3 4.82802 0 0
10:37 am 10:37 Cloudy with Mist and Fog 45 7.2 42 5.6 90 90 NNE 8 13 30.03 1017 4 6.43736 0 0
10:53 am 10:53 Cloudy 46 7.8 42 5.6 86 86 NNE 9 15 30.01 1016 7 11.26538 0 0
11:16 am 11:16 Cloudy with Mist and Fog 45 7 43 6 93 93 NNE 7 11 30.03 1017 3 4.82802 0 0
11:28 am 11:28 Cloudy with Mist and Fog 46 7.8 42 5.6 86 86 NE 6 9 30.03 1017 4 6.43736 0 0
11:39 am 11:39 Cloudy with Mist and Fog 46 7.8 42 5.6 86 86 NE 8 13 30.03 1017 4 6.43736 0 0
11:53 am 11:53 Cloudy with Light Rain 46 7.8 42 5.6 86 86 NNE 8 13 29.99 1016 6 9.65604 0 0.0254
12:14 pm 12:14 Cloudy 46 8 43 6 87 87 NNE 7 11 30.03 1017 9 14.48406 0 0
12:53 pm 12:53 Cloudy 46 7.8 42 5.6 86 86 NE 3 6 30.01 1016 8 12.87472 0 0.0254
1:00 pm 13:00 Cloudy 46 8 43 6 87 87 NE 3 6 30.03 1017 10 16.0934 0 0
1:34 pm 13:34 Cloudy with Light Rain 46 8 43 6 87 87 NNE 5 7 30.03 1017 2.5 4.02335 0 0
1:53 pm 13:53 Cloudy with Light Rain 46 7.8 43 6.1 89 89 ENE 6 9 29.99 1016 5 8.0467 0.02 0.508
2:27 pm 14:27 Cloudy 47 8.3 43 6.1 86 86 N 7 11 29.94 1014 10 16.0934 0 0.0254
2:53 pm 14:53 Cloudy 47 8.3 43 6.1 86 86 NNW 8 13 29.94 1014 10 16.0934 0 0.0254
3:53 pm 15:53 Cloudy 48 8.9 43 6.1 83 83 N 8 13 29.96 1014 10 16.0934 0 0
4:44 pm 16:44 Cloudy with Mist and Fog 47 8.3 44 6.7 90 90 N 8 13 29.97 1015 6 9.65604 0 0
4:53 pm 16:53 Cloudy 48 8.9 43 6.1 83 83 N 9 15 29.98 1015 10 16.0934 0 0
5:53 pm 17:53 Cloudy with Light Rain 47 8.3 43 6.1 86 86 NNE 8 13 30 1016 5 8.0467 0 0.0254
6:03 pm 18:03 Cloudy with Light Rain 47 8.3 43 6.1 86 86 N 7 11 29.97 1015 2.5 4.02335 0.04 1.016
6:11 pm 18:11 Cloudy with Light Rain 47 8.3 43 6.1 86 86 N 7 11 29.97 1015 5 8.0467 0.04 1.016
6:38 pm 18:38 Cloudy with Light Rain 46 8 43 6 87 87 NNE 6 9 29.97 1015 7 11.26538 0 0
6:53 pm 18:53 Cloudy with Light Rain 46 7.8 43 6.1 89 89 NNE 8 13 29.99 1016 6 9.65604 0.07 1.778
7:53 pm 19:53 Cloudy with Light Rain 46 7.8 43 6.1 89 89 undefined N/A 30.01 1016 9 14.48406 0.05 1.27
8:00 pm 20:00 Cloudy with Light Rain 46 8 43 6 87 87 undefined N/A 30.03 1017 10 16.0934 0 0
8:53 pm 20:53 Cloudy with Light Rain 46 7.8 43 6.1 89 89 N 5 7 29.98 1015 10 16.0934 0 0.0254
9:53 pm 21:53 Cloudy with Light Rain 46 7.8 42 5.6 86 86 N 7 11 29.97 1015 10 16.0934 0.01 0.254
10:53 pm 22:53 Cloudy with Light Rain 46 7.8 42 5.6 86 86 Calm 29.99 1016 7 11.26538 0.01 0.254
11:53 pm 23:53 Cloudy with Light Rain 46 7.8 43 6.1 89 89 E 5 7 29.96 1014 10 16.0934 0.06 1.524

Powered by AerisWeather